RH
50 49 53 61 69 71 67 62 61 62 64 66 69 46 47 46 51 35 21 16 19 28 29 28 46 46 43 38 14 40 19 10 9 9 9 10 10 11 11 10 14 20 21
45 40 50 54 60 73 68 64 62 64 62 64 65 58 52 52 55 55 36 16 13 18 25 26 38 52 43 41 37 10 9 9 10 10 11 11 11 11 13 11 12 21 21
41 43 38 47 52 63 72 67 65 62 62 61 56 62 66 65 64 59 45 20 13 16 27 74 80 69 44 38 39 40 11 9 9 10 11 11 11 10 8 7 6 7 9
33 39 43 41 44 52 62 72 68 67 63 61 58 63 63 61 60 59 59 43 21 15 64 82 76 60 49 41 37 41 41 12 9 10 10 11 11 9 8 7 7 8 8
24 26 32 45 52 54 57 65 72 72 72 69 65 67 66 63 61 59 63 59 42 22 47 84 88 78 53 43 39 37 42 34 11 9 9 10 10 9 8 7 8 10 11
33 31 32 39 59 55 65 71 73 77 76 75 74 74 75 69 64 61 61 62 54 50 28 50 69 86 64 50 44 40 38 42 30 12 10 9 10 10 9 8 8 10 12
30 30 36 43 53 55 49 68 76 79 79 77 80 82 80 75 69 66 65 64 63 59 58 43 51 83 81 62 52 45 42 39 43 31 13 11 11 12 11 10 9 8 9
18 21 23 30 44 58 57 71 72 71 78 81 78 80 86 83 77 74 71 68 67 67 60 61 60 62 80 75 57 48 46 42 39 41 36 21 12 12 14 15 15 14 13
19 18 18 18 21 35 48 60 68 76 82 82 83 86 90 89 86 81 80 76 76 74 71 69 65 71 71 70 64 53 54 51 42 38 39 38 31 16 11 12 16 18 18
15 16 15 14 15 17 20 31 46 51 53 56 66 69 76 79 82 84 81 80 80 78 76 75 74 73 73 78 79 63 63 62 54 42 38 38 40 37 25 14 12 13 16
6 6 7 9 11 12 12 14 17 22 26 31 37 46 53 54 58 70 77 78 80 81 79 77 76 70 70 76 80 85 74 70 65 56 47 39 38 38 39 31 17 12 12
5 5 5 5 5 5 5 6 10 14 18 25 32 46 50 55 72 78 81 85 85 86 86 82 77 75 71 67 71 83 93 91 78 72 64 54 44 40 38 38 31 18 14
6 6 6 7 6 6 6 6 6 6 8 12 21 34 40 51 73 75 75 83 86 87 83 79 76 75 77 78 71 68 77 90 90 84 78 73 60 50 43 40 38 34 22
9 9 9 9 9 9 8 8 7 7 6 6 8 12 22 36 54 59 64 78 87 85 81 76 76 79 81 77 80 77 71 68 80 90 86 80 77 69 56 47 44 38 35
11 10 10 10 9 9 9 9 9 9 9 8 8 7 8 12 24 48 56 64 80 81 82 82 86 79 74 76 78 87 74 65 66 69 83 87 81 84 78 68 60 69 45
10 9 9 10 11 11 12 11 10 8 8 8 9 9 9 8 9 14 33 50 57 71 75 78 84 84 85 83 74 84 83 85 87 92 91 92 90 89 90 89 85 83 77
9 10 12 14 16 16 17 18 17 17 16 15 11 8 9 10 9 9 13 30 46 55 62 67 80 84 84 87 79 74 88 90 90 93 98 100 99 92 91 94 93 96 90
11 14 17 20 23 24 21 17 15 15 15 15 15 15 14 11 10 10 10 16 45 64 65 62 79 78 75 93 86 80 86 85 85 86 85 84 85 90 95 98 100 95 99
22 26 28 30 28 26 18 16 17 21 22 21 21 22 18 16 15 12 10 11 53 58 82 80 76 80 81 95 88 74 72 69 58 52 47 53 55 60 47 44 50 68 92
33 31 32 30 19 20 15 22 29 32 28 28 28 25 28 26 22 21 16 15 33 91 80 97 96 94 94 89 80 70 66 63 58 52 44 47 49 50 50 47 43 39 38
38 34 31 16 13 16 25 37 46 36 32 32 33 33 35 38 40 37 27 17 29 95 85 99 99 99 95 90 92 84 71 71 64 58 57 56 54 54 54 52 48 42 37
38 34 23 17 18 23 34 44 47 34 36 35 33 29 23 28 40 48 38 28 20 43 82 98 84 94 99 100 100 96 79 72 68 65 63 61 58 55 51 41 33 32 30
38 31 23 20 21 33 46 46 44 42 43 44 42 49 67 60 58 52 35 35 58 62 59 76 100 100 100 100 100 99 98 80 71 64 64 57 49 41 30 23 20 21 27
38 33 33 32 37 40 44 43 37 37 44 50 54 56 76 82 60 56 68 53 47 95 99 99 87 100 100 100 100 99 100 98 80 62 58 60 48 35 25 23 25 23 32
43 38 41 40 42 44 44 43 38 36 40 43 47 66 92 93 100 99 94 97 82 98 98 99 91 92 84 82 99 98 95 99 96 84 67 59 52 42 32 30 33 32 44
45 46 44 44 45 47 47 51 57 58 50 46 47 54 77 97 91 79 96 97 100 100 100 99 93 89 85 92 87 90 87 82 72 63 51 45 40 43 47 72 70 77 87
Wind_Speed
8 10 9 10 9 9 9 8 8 7 7 8 8 7 7 7 7 7 7 7 6 5 4 3 3 4 7 10 10 6 5 4 3 2 1 2 3 4 5 5 6 5 3
9 8 10 12 11 11 11 10 10 10 9 9 8 7 7 7 8 8 9 8 7 5 4 4 3 3 5 8 10 9 7 5 4 3 3 3 3 4 4 3 3 3 2
9 7 8 13 13 12 12 11 12 11 10 10 10 9 8 7 7 8 8 8 7 6 4 3 4 4 6 7 8 10 9 7 5 4 4 4 4 5 5 5 5 5 5
3 6 10 11 14 15 14 14 14 14 13 12 12 11 11 11 10 8 7 8 7 6 5 5 7 6 5 6 7 8 9 8 6 5 5 5 5 5 6 7 6 6 7
6 5 7 11 12 15 15 15 16 16 15 14 14 13 12 13 12 11 10 9 8 8 8 10 8 7 8 7 7 8 7 7 7 7 6 5 6 6 7 7 8 7 7
12 10 7 9 11 15 17 17 17 18 17 16 15 15 14 14 14 13 13 11 10 9 10 10 12 10 9 9 9 9 8 6 6 6 7 6 7 7 8 8 8 8 8
13 13 12 12 13 13 17 18 19 20 20 19 18 19 19 17 16 15 14 14 13 12 12 12 13 14 13 12 12 12 11 9 7 6 7 8 8 8 9 9 9 9 9
14 15 15 16 16 15 16 16 18 21 22 21 22 22 21 20 19 18 17 16 16 15 15 15 15 15 16 15 15 15 14 12 9 8 8 8 8 9 10 10 10 10 10
15 16 17 17 18 21 19 20 19 19 19 21 21 21 22 22 21 21 20 19 17 16 16 17 17 18 18 18 17 17 16 15 13 12 10 10 9 9 10 11 12 12 12
14 16 18 19 20 21 22 25 26 26 26 25 25 25 24 24 24 24 24 22 22 21 19 19 19 20 20 20 20 19 19 17 16 16 14 12 12 11 11 11 12 13 13
11 12 15 18 20 22 23 24 26 29 30 31 30 30 30 30 28 27 27 26 25 24 23 22 21 21 22 22 21 21 21 19 19 19 17 17 15 14 13 12 12 13 13
15 16 17 19 21 22 24 24 26 28 30 31 32 32 31 30 28 28 27 27 27 26 24 24 25 24 25 24 23 22 21 22 22 21 20 19 19 18 16 14 13 13 13
19 20 21 22 23 25 27 28 29 30 30 31 33 35 35 34 32 31 30 29 30 29 28 27 27 27 27 26 26 25 25 25 24 24 23 23 22 21 20 18 17 15 14
20 21 23 24 25 26 28 30 32 33 34 34 36 36 37 38 37 36 35 33 32 32 33 30 28 28 27 27 28 27 26 27 26 26 25 25 24 24 23 22 21 19 18
21 23 24 25 26 27 27 29 32 34 36 38 39 40 41 40 40 41 39 38 37 34 31 29 27 26 25 26 28 28 28 27 26 27 27 28 27 26 25 25 25 24 22
22 23 23 25 25 26 26 27 28 31 33 36 39 42 44 45 45 43 42 41 41 38 35 33 30 30 29 29 28 27 26 28 28 28 27 29 29 29 27 27 28 28 28
25 25 25 25 26 27 27 28 29 31 33 34 36 38 40 44 47 47 45 41 39 38 38 37 35 35 34 32 32 32 31 31 31 30 28 26 29 31 29 28 29 30 31
24 26 27 26 25 25 25 26 28 30 32 34 37 39 41 42 44 46 46 44 39 39 39 39 37 39 38 34 34 35 35 36 34 36 35 33 34 31 30 31 33 31 31
24 23 24 25 26 26 26 27 29 30 31 34 37 39 41 42 43 45 45 45 42 40 39 40 41 41 42 39 38 38 38 38 37 36 34 32 32 33 33 33 35 37 37
26 26 26 26 25 25 27 29 30 32 32 34 34 36 37 38 40 40 43 45 43 43 38 40 42 42 43 44 43 40 39 40 39 38 37 36 36 38 39 40 39 39 41
30 28 25 22 22 23 26 29 31 26 26 28 30 30 32 34 35 36 36 40 41 32 41 35 40 41 43 41 40 42 43 42 41 40 38 40 43 45 47 49 51 50 47
28 22 21 20 21 22 25 29 24 21 20 22 22 22 22 25 28 29 29 32 38 44 42 32 47 47 44 46 44 44 47 45 43 43 44 46 50 53 56 56 56 57 54
22 18 19 20 21 23 23 24 21 22 21 20 21 20 18 18 19 21 24 28 29 31 41 45 30 28 39 35 42 42 46 47 47 49 48 51 52 52 53 52 51 52 53
20 17 19 21 22 24 22 19 19 17 17 17 18 14 15 17 17 19 20 24 30 28 28 36 48 39 35 33 34 32 38 37 43 50 50 52 55 55 54 53 52 50 48
18 19 21 21 22 20 14 15 17 17 17 18 17 13 12 15 14 14 20 24 25 23 25 22 31 35 37 35 33 34 35 39 43 51 58 59 57 56 55 53 50 46 46
15 16 16 16 14 12 14 14 14 15 17 17 17 14 14 13 14 18 16 16 19 29 28 25 24 23 25 29 33 36 37 40 41 48 55 55 53 47 44 40 43 40 40
Wind_Direction
208 209 214 216 214 215 225 239 257 261 269 270 275 301 311 315 321 325 320 312 303 302 303 305 310 337 353 357 8 21 23 6 339 315 261 243 243 252 234 219 214 227 215
226 229 227 227 225 228 227 230 240 249 257 261 267 287 304 317 320 323 320 310 298 289 290 305 300 323 349 353 354 360 358 356 348 336 305 278 260 258 277 295 293 245 236
225 233 233 231 235 237 242 240 245 254 259 262 269 279 290 293 301 314 316 309 298 279 271 284 286 293 323 339 342 351 356 353 339 322 301 282 272 272 270 271 273 263 267
239 241 237 234 241 244 243 242 244 250 256 260 261 269 282 287 290 301 306 309 301 275 264 245 266 276 294 318 331 336 347 350 334 314 298 287 282 273 270 268 262 262 260
268 256 234 228 241 248 248 250 250 249 254 263 262 263 269 274 281 287 288 293 294 277 256 248 256 264 278 291 306 312 324 337 332 320 306 288 278 276 275 266 267 265 263
263 259 244 228 246 246 249 251 254 254 257 259 259 259 262 267 274 281 285 285 284 278 267 255 255 259 270 278 283 290 293 300 318 312 300 289 274 270 269 270 269 271 272
261 258 256 243 247 250 245 248 253 259 259 258 260 261 262 262 265 270 277 283 283 278 271 265 259 256 264 270 278 280 283 283 288 299 294 286 274 266 266 266 269 273 276
262 262 264 260 255 258 254 258 255 255 257 264 264 263 262 266 267 266 267 271 276 277 275 272 267 261 263 272 277 276 276 274 270 276 283 289 286 276 265 262 262 265 268
259 265 267 265 261 259 259 260 260 263 261 260 263 267 268 271 274 274 275 275 272 270 271 270 268 268 266 266 267 269 269 271 270 266 271 279 285 283 279 274 271 271 272
254 259 265 267 266 265 262 258 259 261 263 264 265 265 267 269 272 272 274 276 275 273 272 272 269 268 266 264 263 263 265 268 268 266 265 267 273 277 279 279 274 270 271
268 267 269 273 272 270 268 265 264 263 263 262 262 262 263 263 264 267 271 273 274 274 277 276 275 273 270 265 265 263 263 265 265 265 265 265 265 268 271 275 277 276 273
280 280 277 277 278 279 279 274 268 264 263 263 262 261 262 262 259 259 263 267 268 268 269 273 276 273 271 270 265 261 258 260 261 263 264 263 265 267 268 271 273 274 274
290 287 283 278 275 274 274 275 276 275 270 266 263 261 261 261 260 259 258 259 261 264 266 269 271 271 272 265 262 260 257 256 259 261 263 263 261 262 265 266 270 271 272
288 284 282 280 277 274 272 271 272 272 272 272 270 266 262 260 260 260 260 258 259 263 265 267 267 265 265 265 262 260 259 259 256 258 260 262 262 260 262 264 265 267 273
285 284 283 281 279 277 275 272 271 271 270 270 269 269 268 265 260 258 257 257 257 257 261 261 261 258 257 259 259 258 257 257 255 256 259 262 262 261 258 259 262 261 262
284 283 282 282 283 283 283 283 280 276 273 272 271 270 269 268 266 262 257 256 257 257 257 261 257 254 260 263 260 256 260 261 262 260 256 258 261 262 259 260 261 260 259
287 289 288 288 290 291 289 286 283 281 278 275 272 270 270 268 267 266 262 255 256 258 257 254 255 254 254 260 257 258 257 255 257 256 255 256 255 259 260 257 261 264 263
288 290 296 300 300 296 293 292 292 289 284 277 272 267 264 264 264 262 262 258 251 254 254 253 251 253 252 257 256 257 255 256 258 260 261 263 265 274 269 262 261 263 259
296 301 303 303 300 298 297 300 301 299 296 288 282 276 269 264 264 261 258 256 252 249 253 253 251 251 254 259 258 256 257 257 260 263 265 266 266 267 272 274 278 274 266
302 306 304 304 303 300 303 307 306 304 304 298 290 278 273 268 266 267 262 257 245 253 252 253 253 254 256 258 257 258 260 261 263 265 264 267 272 275 278 278 275 272 270
309 308 307 308 303 303 306 307 304 299 305 305 300 290 279 275 269 263 263 261 257 250 248 253 254 258 259 258 257 257 258 261 262 266 268 270 273 276 277 279 280 277 271
306 302 301 303 302 301 301 313 305 304 308 315 310 308 302 287 278 272 267 262 256 250 249 257 257 252 256 250 254 257 258 255 259 260 263 265 268 271 273 274 275 274 274
296 299 299 299 299 302 304 307 303 303 315 317 316 315 317 300 283 272 266 260 260 257 254 250 248 263 250 247 252 254 255 256 258 256 262 269 273 275 274 272 272 269 267
290 297 299 301 301 305 306 298 294 292 303 310 316 314 321 321 298 280 274 265 255 253 261 254 252 272 269 273 261 260 259 272 278 276 273 276 278 278 278 275 274 270 264
296 291 295 303 310 307 306 301 298 300 302 306 318 315 309 306 316 298 296 283 267 282 285 302 292 280 287 286 281 271 271 267 273 279 282 282 282 284 282 278 276 270 269
285 289 295 303 313 329 336 327 316 312 306 302 299 304 307 319 292 296 307 298 284 269 286 288 281 276 274 280 282 280 277 275 276 276 278 282 282 278 277 279 282 274 270